Berta — V2BQ6 — position and weather

sailwx.info

Track history (hours):
 
Tides and Currents Weather Stations Pressure Air Temp Water Temp Dewpoint Dewpoint Depression Visibility Wind Speed Wind Dir Waves Ship Positions

Berta

Last reported at 2014-Sep-01 18:33 UTC. Time now 2014-Sep-01 18:51 UTC.
Position N 53°31' E 009°58'.

Length 107 m; draft 7.5 m.

Type: Ship (hazmat cat A). MMSI: 304586000.

Date/timePositionNaut miles runAvg speedWind from/ knotsBaromVisibWave heightAir tempDewpointWater temp
2014-Sep-01 18:33N 53°31' E 009°58'0 0.0
2014-Sep-01 17:33N 53°31' E 009°58'0 0.0
2014-Sep-01 16:33N 53°31' E 009°58'0 0.0
2014-Sep-01 15:33N 53°31' E 009°58'0 0.0
2014-Sep-01 14:34N 53°31' E 009°58'8 7.7
2014-Sep-01 13:33N 53°34' E 009°45'1111.5
2014-Sep-01 12:33N 53°41' E 009°30'1211.9
2014-Sep-01 11:34N 53°51' E 009°20'9 9.4
2014-Sep-01 10:34N 53°52' E 009°04'1110.7
2014-Sep-01 09:33N 53°51' E 008°46'1110.9
2014-Sep-01 08:33N 53°58' E 008°32'1212.4
2014-Sep-01 07:33N 53°60' E 008°11'1211.9
2014-Sep-01 06:34N 54°04' E 007°52'1212.0
2014-Sep-01 05:33N 54°08' E 007°33'1312.9
2014-Sep-01 04:33N 54°21' E 007°26'1312.6
2014-Sep-01 03:33N 54°33' E 007°19'  
2014-Aug-28 14:22N 62°58' E 006°36'28012.8
2014-Aug-27 16:33N 58°20' E 005°26'14414.4
2014-Aug-27 06:33N 56°00' E 006°34'1414.6
2014-Aug-27 05:33N 55°46' E 006°40'1514.6
2014-Aug-27 04:33N 55°32' E 006°47'1514.8
2014-Aug-27 03:33N 55°18' E 006°53'1514.6
2014-Aug-27 02:33N 55°04' E 007°00'2914.8
2014-Aug-27 00:33N 54°36' E 007°19'1414.4
2014-Aug-26 23:33N 54°23' E 007°28'1413.6
2014-Aug-26 22:33N 54°11' E 007°40'1313.4
2014-Aug-26 21:33N 54°04' E 007°59'1513.0
2014-Aug-26 20:23N 53°59' E 008°23'1114.0
2014-Aug-26 19:33N 53°55' E 008°41'1413.9
2014-Aug-26 18:33N 53°53' E 009°05'1212.2
2014-Aug-26 17:33N 53°47' E 009°23'1514.7
2014-Aug-26 16:34N 53°35' E 009°37'1110.6
2014-Aug-26 15:33N 53°32' E 009°54'0 0.1
2014-Aug-26 14:34N 53°32' E 009°55'0 0.0
2014-Aug-26 13:34N 53°32' E 009°55'0 0.0
2014-Aug-26 12:33N 53°32' E 009°55'0 0.0
2014-Aug-26 11:34N 53°32' E 009°55'0 0.0
2014-Aug-26 10:34N 53°32' E 009°55'0 0.0
2014-Aug-26 09:34N 53°32' E 009°55'0 0.1
2014-Aug-26 08:34N 53°32' E 009°54'3 2.8
2014-Aug-26 07:34N 53°32' E 009°59'0 0.0
2014-Aug-26 06:33N 53°32' E 009°59'0 0.0
2014-Aug-26 05:34N 53°32' E 009°59'2 2.4
2014-Aug-26 04:33N 53°30' E 009°56'0 0.1
2014-Aug-26 03:34N 53°30' E 009°56'0 0.0
2014-Aug-26 02:34N 53°30' E 009°56'0 0.0
2014-Aug-26 01:34N 53°30' E 009°56'0 0.0
2014-Aug-26 00:33N 53°30' E 009°56'0 0.0
2014-Aug-25 23:33N 53°30' E 009°56'0 0.0
2014-Aug-25 22:34N 53°30' E 009°56'0 0.0
2014-Aug-25 21:33N 53°30' E 009°56'0 0.0
2014-Aug-25 20:33N 53°30' E 009°56'3 2.6
2014-Aug-25 19:34N 53°32' E 009°54'1111.0
2014-Aug-25 18:34N 53°36' E 009°36'1211.6
2014-Aug-25 17:34N 53°45' E 009°24'1110.9
2014-Aug-25 16:34N 53°53' E 009°11'1110.6
2014-Aug-25 15:33N 53°50' E 008°54'1111.5
2014-Aug-25 14:34N 53°57' E 008°38'1312.6
2014-Aug-25 13:33N 53°59' E 008°17'10 9.9
2014-Aug-25 12:34N 54°01' E 008°00'1110.5
2014-Aug-25 11:34N 54°06' E 007°45'1010.2
2014-Aug-25 10:33N 54°13' E 007°31'1010.0
2014-Aug-25 09:34N 54°22' E 007°25'9 9.1
2014-Aug-25 08:33N 54°31' E 007°20'9 9.3
2014-Aug-25 07:33N 54°40' E 007°15'1211.2
2014-Aug-25 06:30N 54°51' E 007°08'1111.6
2014-Aug-25 05:33N 55°01' E 007°02'1110.5
2014-Aug-25 04:33N 55°11' E 006°57'1110.6
2014-Aug-25 03:33N 55°21' E 006°52'1010.5
2014-Aug-25 02:33N 55°31' E 006°47'13711.2
2014-Aug-24 14:21N 57°43' E 005°38'  
Track history (hours):
 
Tides and Currents Weather Stations Pressure Air Temp Water Temp Dewpoint Dewpoint Depression Visibility Wind Speed Wind Dir Waves Ship Positions

Berta

Last reported at 2014-Sep-01 18:33 UTC. Time now 2014-Sep-01 18:51 UTC.
Position N 53°31' E 009°58'.

Length 107 m; draft 7.5 m.

Type: Ship (hazmat cat A). MMSI: 304586000.

Date/timePositionNaut miles runAvg speedWind from/ knotsBaromVisibWave heightAir tempDewpointWater temp
2014-Sep-01 18:33N 53°31' E 009°58'0 0.0
2014-Sep-01 17:33N 53°31' E 009°58'0 0.0
2014-Sep-01 16:33N 53°31' E 009°58'0 0.0
2014-Sep-01 15:33N 53°31' E 009°58'0 0.0
2014-Sep-01 14:34N 53°31' E 009°58'8 7.7
2014-Sep-01 13:33N 53°34' E 009°45'1111.5
2014-Sep-01 12:33N 53°41' E 009°30'1211.9
2014-Sep-01 11:34N 53°51' E 009°20'9 9.4
2014-Sep-01 10:34N 53°52' E 009°04'1110.7
2014-Sep-01 09:33N 53°51' E 008°46'1110.9
2014-Sep-01 08:33N 53°58' E 008°32'1212.4
2014-Sep-01 07:33N 53°60' E 008°11'1211.9
2014-Sep-01 06:34N 54°04' E 007°52'1212.0
2014-Sep-01 05:33N 54°08' E 007°33'1312.9
2014-Sep-01 04:33N 54°21' E 007°26'1312.6
2014-Sep-01 03:33N 54°33' E 007°19'  
2014-Aug-28 14:22N 62°58' E 006°36'28012.8
2014-Aug-27 16:33N 58°20' E 005°26'14414.4
2014-Aug-27 06:33N 56°00' E 006°34'1414.6
2014-Aug-27 05:33N 55°46' E 006°40'1514.6
2014-Aug-27 04:33N 55°32' E 006°47'1514.8
2014-Aug-27 03:33N 55°18' E 006°53'1514.6
2014-Aug-27 02:33N 55°04' E 007°00'2914.8
2014-Aug-27 00:33N 54°36' E 007°19'1414.4
2014-Aug-26 23:33N 54°23' E 007°28'1413.6
2014-Aug-26 22:33N 54°11' E 007°40'1313.4
2014-Aug-26 21:33N 54°04' E 007°59'1513.0
2014-Aug-26 20:23N 53°59' E 008°23'1114.0
2014-Aug-26 19:33N 53°55' E 008°41'1413.9
2014-Aug-26 18:33N 53°53' E 009°05'1212.2
2014-Aug-26 17:33N 53°47' E 009°23'1514.7
2014-Aug-26 16:34N 53°35' E 009°37'1110.6
2014-Aug-26 15:33N 53°32' E 009°54'0 0.1
2014-Aug-26 14:34N 53°32' E 009°55'0 0.0
2014-Aug-26 13:34N 53°32' E 009°55'0 0.0
2014-Aug-26 12:33N 53°32' E 009°55'0 0.0
2014-Aug-26 11:34N 53°32' E 009°55'0 0.0
2014-Aug-26 10:34N 53°32' E 009°55'0 0.0
2014-Aug-26 09:34N 53°32' E 009°55'0 0.1
2014-Aug-26 08:34N 53°32' E 009°54'3 2.8
2014-Aug-26 07:34N 53°32' E 009°59'0 0.0
2014-Aug-26 06:33N 53°32' E 009°59'0 0.0
2014-Aug-26 05:34N 53°32' E 009°59'2 2.4
2014-Aug-26 04:33N 53°30' E 009°56'0 0.1
2014-Aug-26 03:34N 53°30' E 009°56'0 0.0
2014-Aug-26 02:34N 53°30' E 009°56'0 0.0
2014-Aug-26 01:34N 53°30' E 009°56'0 0.0
2014-Aug-26 00:33N 53°30' E 009°56'0 0.0
2014-Aug-25 23:33N 53°30' E 009°56'0 0.0
2014-Aug-25 22:34N 53°30' E 009°56'0 0.0
2014-Aug-25 21:33N 53°30' E 009°56'0 0.0
2014-Aug-25 20:33N 53°30' E 009°56'3 2.6
2014-Aug-25 19:34N 53°32' E 009°54'1111.0
2014-Aug-25 18:34N 53°36' E 009°36'1211.6
2014-Aug-25 17:34N 53°45' E 009°24'1110.9
2014-Aug-25 16:34N 53°53' E 009°11'1110.6
2014-Aug-25 15:33N 53°50' E 008°54'1111.5
2014-Aug-25 14:34N 53°57' E 008°38'1312.6
2014-Aug-25 13:33N 53°59' E 008°17'10 9.9
2014-Aug-25 12:34N 54°01' E 008°00'1110.5
2014-Aug-25 11:34N 54°06' E 007°45'1010.2
2014-Aug-25 10:33N 54°13' E 007°31'1010.0
2014-Aug-25 09:34N 54°22' E 007°25'9 9.1
2014-Aug-25 08:33N 54°31' E 007°20'9 9.3
2014-Aug-25 07:33N 54°40' E 007°15'1211.2
2014-Aug-25 06:30N 54°51' E 007°08'1111.6
2014-Aug-25 05:33N 55°01' E 007°02'1110.5
2014-Aug-25 04:33N 55°11' E 006°57'1110.6
2014-Aug-25 03:33N 55°21' E 006°52'1010.5
2014-Aug-25 02:33N 55°31' E 006°47'13711.2
2014-Aug-24 14:21N 57°43' E 005°38'  

Dump ship's entire track history